H1 CPF 2 NER 2025 8 11 9 223 01 glonass146 H2 2216101 9146 54377 2025 8 11 0 0 0 2025 8 14 23 45 0 900 1 1 0 0 0 1 H9 10 0 60898 0.00000 0 -14959470.835 -12239130.039 -16652557.592 10 0 60898 900.00000 0 -15974153.641 -13861415.360 -14274393.383 10 0 60898 1800.00000 0 -16938076.940 -15143949.804 -11619211.922 10 0 60898 2700.00000 0 -17791539.148 -16078026.022 -8738617.964 10 0 60898 3600.00000 0 -18476226.829 -16667971.522 -5688549.164 10 0 60898 4500.00000 0 -18937776.768 -16930723.478 -2528190.039 10 0 60898 5400.00000 0 -19128187.304 -16894886.959 681174.261 10 0 60898 6300.00000 0 -19007977.810 -16599317.779 3877342.228 10 0 60898 7200.00000 0 -18548005.906 -16091290.821 6998395.512 10 0 60898 8100.00000 0 -17730866.334 -15424331.725 9983890.801 10 0 60898 9000.00000 0 -16551812.903 -14655803.550 12776021.530 10 0 60898 9900.00000 0 -15019164.759 -13844349.948 15320727.545 10 0 60898 10800.00000 0 -13154179.556 -13047302.018 17568732.112 10 0 60898 11700.00000 0 -10990398.054 -12318157.236 19476487.111 10 0 60898 12600.00000 0 -8572486.373 -11704235.709 21007009.052 10 0 60898 13500.00000 0 -5954622.703 -11244611.440 22130590.647 10 0 60898 14400.00000 0 -3198493.782 -10968404.914 22825374.848 10 0 60898 15300.00000 0 -370982.568 -10893508.387 23077780.703 10 0 60898 16200.00000 0 2458358.938 -11025797.462 22882772.884 10 0 60898 17100.00000 0 5219948.728 -11358862.558 22243969.373 10 0 60898 18000.00000 0 7846817.849 -11874272.452 21173584.518 10 0 60898 18900.00000 0 10277149.174 -12542360.095 19692207.499 10 0 60898 19800.00000 0 12456607.379 -13323499.104 17828419.148 10 0 60898 20700.00000 0 14340363.722 -14169818.738 15618253.069 10 0 60898 21600.00000 0 15894731.423 -15027286.475 13104509.988 10 0 60898 22500.00000 0 17098343.190 -15838071.425 10335937.306 10 0 60898 23400.00000 0 17942821.228 -16543089.380 7366288.744 10 0 60898 24300.00000 0 18432911.190 -17084622.017 4253281.728 10 0 60898 25200.00000 0 18586074.082 -17408898.939 1057472.621 10 0 60898 26100.00000 0 18431553.114 -17468532.226 -2158927.947 10 0 60898 27000.00000 0 18008955.041 -17224698.970 -5333275.784 10 0 60898 27900.00000 0 17366406.356 -16648977.674 -8403724.994 10 0 60898 28800.00000 0 16558363.151 -15724758.945 -11310445.561 10 0 60898 29700.00000 0 15643168.408 -14448169.107 -13996801.525 10 0 60898 30600.00000 0 14680461.322 -12828466.168 -16410465.460 10 0 60898 31500.00000 0 13728549.594 -10887890.217 -18504446.384 10 0 60898 32400.00000 0 12841856.972 -8660973.706 -20238010.305 10 0 60898 33300.00000 0 12068554.840 -6193340.096 -21577475.069 10 0 60898 34200.00000 0 11448478.437 -3540041.050 -22496864.000 10 0 60898 35100.00000 0 11011415.769 -763501.817 -22978405.971 10 0 60898 36000.00000 0 10775841.057 2068839.281 -23012872.775 10 0 60898 36900.00000 0 10748145.431 4887098.644 -22599748.073 10 0 60898 37800.00000 0 10922396.262 7621615.570 -21747225.533 10 0 60898 38700.00000 0 11280634.068 10205610.039 -20472037.120 10 0 60898 39600.00000 0 11793693.241 12577720.068 -18799115.751 10 0 60898 40500.00000 0 12422510.777 14684314.004 -16761099.610 10 0 60898 41400.00000 0 13119866.799 16481482.785 -14397688.388 10 0 60898 42300.00000 0 13832482.658 17936630.718 -11754864.460 10 0 60898 43200.00000 0 14503387.560 19029600.277 -8883994.491 10 0 60898 44100.00000 0 15074453.597 19753285.922 -5840829.159 10 0 60898 45000.00000 0 15488992.200 20113713.272 -2684420.604 10 0 60898 45900.00000 0 15694302.646 20129582.264 524021.357 10 0 60898 46800.00000 0 15644065.480 19831295.176 3722312.149 10 0 60898 47700.00000 0 15300480.302 19259511.685 6848491.714 10 0 60898 48600.00000 0 14636058.250 18463292.690 9842017.265 10 0 60898 49500.00000 0 13634993.936 17497911.422 12644926.954 10 0 60898 50400.00000 0 12294059.183 16422423.966 15202952.557 10 0 60898 51300.00000 0 10622980.701 15297100.955 17466560.464 10 0 60898 52200.00000 0 8644285.189 14180827.697 19391901.780 10 0 60898 53100.00000 0 6392617.241 13128581.034 20941654.046 10 0 60898 54000.00000 0 3913557.030 12189087.864 22085739.204 10 0 60898 54900.00000 0 1261985.230 11402762.641 22801904.632 10 0 60898 55800.00000 0 -1499938.827 10800009.621 23076156.470 10 0 60898 56700.00000 0 -4305103.880 10399960.636 22903036.944 10 0 60898 57600.00000 0 -7083983.846 10209701.267 22285740.083 10 0 60898 58500.00000 0 -9767281.891 10224018.243 21236062.880 10 0 60898 59400.00000 0 -12288573.279 10425679.397 19774191.808 10 0 60898 60300.00000 0 -14586838.423 10786235.440 17928327.495 10 0 60898 61200.00000 0 -16608781.442 11267310.955 15734153.322 10 0 60898 62100.00000 0 -18310837.946 11822331.434 13234156.771 10 0 60898 63000.00000 0 -19660788.095 12398614.469 10476815.288 10 0 60898 63900.00000 0 -20638907.000 12939737.403 7515661.442 10 0 60898 64800.00000 0 -21238603.674 13388081.529 4408244.860 10 0 60898 65700.00000 0 -21466521.069 13687444.793 1215010.944 10 0 60898 66600.00000 0 -21342092.500 13785611.457 -2001881.457 10 0 60898 67500.00000 0 -20896572.953 13636768.526 -5179779.650 10 0 60898 68400.00000 0 -20171586.312 13203664.855 -8256769.072 10 0 60898 69300.00000 0 -19217250.346 12459419.635 -11172892.233 10 0 60898 70200.00000 0 -18089959.585 11388901.862 -13871329.444 10 0 60898 71100.00000 0 -16849920.839 9989620.694 -16299516.988 10 0 60898 72000.00000 0 -15558546.743 8272087.670 -18410179.760 10 0 60898 72900.00000 0 -14275818.524 6259634.371 -20162257.507 10 0 60898 73800.00000 0 -13057730.269 3987692.370 -21521706.189 10 0 60898 74700.00000 0 -11953923.072 1502565.299 -22462158.821 10 0 60898 75600.00000 0 -11005608.967 -1140255.762 -22965433.267 10 0 60898 76500.00000 0 -10243871.771 -3878163.146 -23021877.740 10 0 60898 77400.00000 0 -9688415.624 -6643803.160 -22630548.049 10 0 60898 78300.00000 0 -9346812.762 -9367647.538 -21799214.107 10 0 60898 79200.00000 0 -9214280.718 -11980658.829 -20544196.467 10 0 60898 80100.00000 0 -9273996.764 -14416939.060 -18890036.947 10 0 60898 81000.00000 0 -9497934.710 -16616252.127 -16869010.492 10 0 60898 81900.00000 0 -9848187.308 -18526315.792 -14520488.407 10 0 60898 82800.00000 0 -10278717.188 -20104769.048 -11890165.815 10 0 60898 83700.00000 0 -10737461.465 -21320734.290 -9029168.733 10 0 60898 84600.00000 0 -11168700.474 -22155910.778 -5993058.342 10 0 60898 85500.00000 0 -11515590.241 -22605155.442 -2840751.973 10 0 60899 0.00000 0 -11722751.653 -22676528.504 366617.933 10 0 60899 900.00000 0 -11738807.213 -22390803.638 3566886.542 10 0 60899 1800.00000 0 -11518758.316 -21780464.559 6698053.938 10 0 60899 2700.00000 0 -11026103.508 -20888231.375 9699479.916 10 0 60899 3600.00000 0 -10234608.351 -19765179.012 12513049.318 10 0 60899 4500.00000 0 -9129652.676 -18468527.032 15084287.706 10 0 60899 5400.00000 0 -7709098.336 -17059193.382 17363406.322 10 0 60899 6300.00000 0 -5983640.522 -15599214.086 19306257.030 10 0 60899 7200.00000 0 -3976626.962 -14149136.190 20875179.705 10 0 60899 8100.00000 0 -1723351.177 -12765492.141 22039726.562 10 0 60899 9000.00000 0 730152.479 -11498460.242 22777250.165 10 0 60899 9900.00000 0 3328763.833 -10389808.110 23073344.199 10 0 60899 10800.00000 0 6010315.330 -9471204.406 22922128.613 10 0 60899 11700.00000 0 8707931.413 -8762969.007 22326373.366 10 0 60899 12600.00000 0 11352573.752 -8273313.831 21297457.709 10 0 60899 13500.00000 0 13875688.391 -7998106.350 19855164.760 10 0 60899 14400.00000 0 16211846.214 -7921166.275 18027314.009 10 0 60899 15300.00000 0 18301267.755 -8015083.731 15849237.404 10 0 60899 16200.00000 0 20092127.572 -8242525.325 13363107.643 10 0 60899 17100.00000 0 21542541.951 -8557973.883 10617130.334 10 0 60899 18000.00000 0 22622156.301 -8909828.970 7664614.628 10 0 60899 18900.00000 0 23313265.045 -9242779.607 4562939.733 10 0 60899 19800.00000 0 23611416.122 -9500348.522 1372437.149 10 0 60899 20700.00000 0 23525473.908 -9627499.419 -1844789.257 10 0 60899 21600.00000 0 23077137.354 -9573195.553 -5026081.619 10 0 60899 22500.00000 0 22299933.392 -9292799.581 -8109460.055 10 0 60899 23400.00000 0 21237728.249 -8750211.157 -11034842.846 10 0 60899 24300.00000 0 19942820.029 -7919649.835 -13745229.616 10 0 60899 25200.00000 0 18473693.893 -6787005.958 -16187823.114 10 0 60899 26100.00000 0 16892535.646 -5350700.832 -18315066.546 10 0 60899 27000.00000 0 15262609.630 -3622018.524 -20085575.468 10 0 60899 27900.00000 0 13645612.418 -1624894.264 -21464945.630 10 0 60899 28800.00000 0 12099114.414 604832.295 -22426421.000 10 0 60899 29700.00000 0 10674197.309 3020668.048 -22951409.265 10 0 60899 30600.00000 0 9413386.501 5567169.387 -23029835.417 10 0 60899 31500.00000 0 8348964.731 8182025.972 -22660327.316 10 0 60899 32400.00000 0 7501736.583 10798438.290 -21850230.553 10 0 60899 33300.00000 0 6880294.248 13347689.931 -20615453.246 10 0 60899 34200.00000 0 6480813.580 15761807.529 -18980144.654 10 0 60899 35100.00000 0 6287387.111 17976197.959 -16976214.617 10 0 60899 36000.00000 0 6272878.083 19932153.570 -14642703.802 10 0 60899 36900.00000 0 6400257.767 21579121.862 -12025017.472 10 0 60899 37800.00000 0 6624368.202 22876646.131 -9174038.084 10 0 60899 38700.00000 0 6894034.799 23795897.380 -6145134.152 10 0 60899 39600.00000 0 7154438.829 24320734.951 -2997084.836 10 0 60899 40500.00000 0 7349649.111 24448253.050 209058.826 10 0 60899 41400.00000 0 7425205.836 24188791.751 3411154.033 10 0 60899 42300.00000 0 7330647.490 23565413.332 6547164.928 10 0 60899 43200.00000 0 7021874.427 22612866.934 9556357.019 10 0 60899 44100.00000 0 6463249.687 21376085.663 12380464.695 10 0 60899 45000.00000 0 5629348.689 19908279.430 14964809.837 10 0 60899 45900.00000 0 4506284.168 18268703.351 17259350.704 10 0 60899 46800.00000 0 3092550.313 16520194.628 19219641.730 10 0 60899 47700.00000 0 1399349.986 14726580.200 20807686.558 10 0 60899 48600.00000 0 -549609.848 12950062.467 21992668.742 10 0 60899 49500.00000 0 -2718847.548 11248691.140 22751546.716 10 0 60899 50400.00000 0 -5062332.548 9674025.656 23069501.992 10 0 60899 51300.00000 0 -7525158.576 8269084.672 22940232.093 10 0 60899 52200.00000 0 -10045596.995 7066667.466 22366082.302 10 0 60899 53100.00000 0 -12557447.076 6088116.857 21358013.033 10 0 60899 54000.00000 0 -14992587.444 5342575.182 19935402.448 10 0 60899 54900.00000 0 -17283624.215 4826764.626 18125686.812 10 0 60899 55800.00000 0 -19366526.646 4525301.515 15963844.085 10 0 60899 56700.00000 0 -21183141.051 4411531.914 13491729.240 10 0 60899 57600.00000 0 -22683478.055 4448853.948 10757272.795 10 0 60899 58500.00000 0 -23827677.092 4592471.541 7813557.052 10 0 60899 59400.00000 0 -24587565.012 4791505.678 4717787.271 10 0 60899 60300.00000 0 -24947742.368 4991373.730 1530177.535 10 0 60899 61200.00000 0 -24906150.652 5136335.433 -1687226.683 10 0 60899 62100.00000 0 -24474095.653 5172096.572 -4871765.608 10 0 60899 63000.00000 0 -23675725.324 5048358.519 -7961397.109 10 0 60899 63900.00000 0 -22546983.872 4721203.801 -10895918.071 10 0 60899 64800.00000 0 -21134086.333 4155214.722 -13618149.982 10 0 60899 65700.00000 0 -19491578.452 3325233.431 -16075064.273 10 0 60899 66600.00000 0 -17680064.461 2217687.295 -18218824.270 10 0 60899 67500.00000 0 -15763699.388 831422.079 -20007722.672 10 0 60899 68400.00000 0 -13807552.352 -821993.340 -21406995.834 10 0 60899 69300.00000 0 -11874952.443 -2718504.394 -22389498.923 10 0 60899 70200.00000 0 -10024929.074 -4822340.903 -22936229.146 10 0 60899 71100.00000 0 -8309854.165 -7087287.788 -23036687.435 10 0 60899 72000.00000 0 -6773384.553 -9458403.267 -22689072.365 10 0 60899 72900.00000 0 -5448789.841 -11874112.648 -21900303.446 10 0 60899 73800.00000 0 -4357734.282 -14268590.269 -20685874.239 10 0 60899 74700.00000 0 -3509561.973 -16574330.170 -19069539.035 10 0 60899 75600.00000 0 -2901113.211 -18724798.450 -17082839.958 10 0 60899 76500.00000 0 -2517077.588 -20657057.066 -14764484.291 10 0 60899 77400.00000 0 -2330866.824 -22314250.141 -12159584.664 10 0 60899 78300.00000 0 -2305968.684 -23647849.822 -9318777.228 10 0 60899 79200.00000 0 -2397723.272 -24619568.885 -6297235.181 10 0 60899 80100.00000 0 -2555445.532 -25202861.273 -3153597.017 10 0 60899 81000.00000 0 -2724803.461 -25383949.050 51169.676 10 0 60899 81900.00000 0 -2850351.128 -25162334.007 3254946.863 10 0 60899 82800.00000 0 -2878109.350 -24550773.635 6395664.454 10 0 60899 83700.00000 0 -2758085.109 -23574723.439 9412495.524 10 0 60899 84600.00000 0 -2446623.662 -22271269.589 12247025.718 10 0 60899 85500.00000 0 -1908494.355 -20687596.955 14844374.812 10 0 60900 0.00000 0 -1118622.546 -18879056.732 17154249.315 10 0 60900 900.00000 0 -63394.190 -16906913.020 19131907.889 10 0 60900 1800.00000 0 1258521.014 -14835864.171 20739018.767 10 0 60900 2700.00000 0 2835864.699 -12731438.099 21944397.660 10 0 60900 3600.00000 0 4645016.200 -10657371.274 22724609.441 10 0 60900 4500.00000 0 6650742.845 -8673078.466 23064423.787 10 0 60900 5400.00000 0 8807444.813 -6831317.532 22957115.884 10 0 60900 6300.00000 0 11060844.942 -5176145.489 22404606.206 10 0 60900 7200.00000 0 13350055.298 -3741250.276 21417435.979 10 0 60900 8100.00000 0 15609936.599 -2548727.274 20014577.843 10 0 60900 9000.00000 0 17773653.993 -1608351.525 18223084.057 10 0 60900 9900.00000 0 19775324.008 -917376.176 16077577.576 10 0 60900 10800.00000 0 21552643.013 -460865.890 13619594.358 10 0 60900 11700.00000 0 23049387.605 -212551.597 10896788.250 10 0 60900 12600.00000 0 24217681.914 -136170.930 7962012.791 10 0 60900 13500.00000 0 25019935.992 -187237.948 4872297.036 10 0 60900 14400.00000 0 25430372.805 -315167.244 1687735.079 10 0 60900 15300.00000 0 25436078.295 -465662.000 -1529688.845 10 0 60900 16200.00000 0 25037529.123 -583263.928 -4717316.087 10 0 60900 17100.00000 0 24248574.786 -613955.677 -7813045.374 10 0 60900 18000.00000 0 23095874.152 -507703.758 -10756555.263 10 0 60900 18900.00000 0 21617809.869 -220832.397 -13490492.037 10 0 60900 19800.00000 0 19862926.472 281874.091 -15961598.520 10 0 60900 20700.00000 0 17887958.445 1025431.162 -18121760.601 10 0 60900 21600.00000 0 15755531.911 2023351.186 -19928950.274 10 0 60900 22500.00000 0 13531637.324 3276834.151 -21348046.351 10 0 60900 23400.00000 0 11282980.040 4774486.926 -22351516.749 10 0 60900 24300.00000 0 9074320.345 6492583.449 -22919949.411 10 0 60900 25200.00000 0 6965914.515 8395855.228 -23042422.076 10 0 60900 26100.00000 0 5011163.735 10438779.044 -22716704.516 10 0 60900 27000.00000 0 3254568.392 12567307.830 -21949290.209 10 0 60900 27900.00000 0 1730072.021 14720972.204 -20755257.764 10 0 60900 28800.00000 0 459862.465 16835264.655 -19157965.642 10 0 60900 29700.00000 0 -546321.674 18844206.766 -17188586.916 10 0 60900 30600.00000 0 -1291352.480 20682992.337 -14885493.713 10 0 60900 31500.00000 0 -1790337.647 22290596.304 -12293503.825 10 0 60900 32400.00000 0 -2069726.881 23612240.887 -9463004.510 10 0 60900 33300.00000 0 -2165939.381 24601616.587 -6448970.743 10 0 60900 34200.00000 0 -2123571.915 25222765.916 -3309897.181 10 0 60900 35100.00000 0 -1993264.318 25451551.985 -106664.621 10 0 60900 36000.00000 0 -1829313.371 25276651.438 3098637.097 10 0 60900 36900.00000 0 -1687136.255 24700031.065 6243907.069 10 0 60900 37800.00000 0 -1620690.790 23736888.936 9268229.250 10 0 60900 38700.00000 0 -1679961.217 22415063.072 12113043.689 10 0 60900 39600.00000 0 -1908615.319 20773932.686 14723270.955 10 0 60900 40500.00000 0 -2341931.332 18862857.848 17048368.817 10 0 60900 41400.00000 0 -3005081.772 16739222.303 19043301.654 10 0 60900 42300.00000 0 -3911846.470 14466160.338 20669404.730 10 0 60900 43200.00000 0 -5063809.286 12110061.377 21895127.560 10 0 60900 44100.00000 0 -6450073.124 9737954.885 22696642.746 10 0 60900 45000.00000 0 -8047506.514 7414883.054 23058309.005 10 0 60900 45900.00000 0 -9821513.178 5201369.124 22972979.629 10 0 60900 46800.00000 0 -11727294.513 3151085.358 22442150.228 10 0 60900 47700.00000 0 -13711554.434 1308816.660 21475942.257 10 0 60900 48600.00000 0 -15714577.617 -291196.133 20092921.697 10 0 60900 49500.00000 0 -17672596.344 -1626464.717 18319755.094 10 0 60900 50400.00000 0 -19520348.675 -2686963.178 16190708.143 10 0 60900 51300.00000 0 -21193722.074 -3475309.500 13746995.047 10 0 60900 52200.00000 0 -22632372.357 -4006410.881 11035989.815 10 0 60900 53100.00000 0 -23782208.075 -4306587.499 8110313.735 10 0 60900 54000.00000 0 -24597635.388 -4412211.519 5026815.974 10 0 60900 54900.00000 0 -25043468.014 -4367918.835 1845466.853 10 0 60900 55800.00000 0 -25096420.471 -4224469.579 -1371814.413 10 0 60900 56700.00000 0 -24746120.272 -4036348.717 -4562373.987 10 0 60900 57600.00000 0 -23995595.020 -3859209.564 -7664054.986 10 0 60900 58500.00000 0 -22861212.741 -3747270.027 -10616420.957 10 0 60900 59400.00000 0 -21372077.208 -3750773.655 -13361946.024 10 0 60900 60300.00000 0 -19568903.383 -3913624.823 -15847147.095 10 0 60900 61200.00000 0 -17502420.378 -4271299.895 -18023634.904 10 0 60900 62100.00000 0 -15231369.485 -4849124.259 -19849062.514 10 0 60900 63000.00000 0 -12820181.911 -5660989.243 -21287952.384 10 0 60900 63900.00000 0 -10336434.279 -6708563.981 -22312385.744 10 0 60900 64800.00000 0 -7848188.992 -7981035.964 -22902541.186 10 0 60900 65700.00000 0 -5421330.942 -9455391.481 -23047072.536 10 0 60900 66600.00000 0 -3117011.807 -11097224.126 -22743319.474 10 0 60900 67500.00000 0 -989308.075 -12862037.290 -21997347.660 10 0 60900 68400.00000 0 916810.487 -14696985.787 -20823818.547 10 0 60900 69300.00000 0 2567118.575 -16542983.355 -19245692.251 10 0 60900 70200.00000 0 3939312.820 -18337087.611 -17293770.051 10 0 60900 71100.00000 0 5023681.963 -20015062.539 -15006086.010 10 0 60900 72000.00000 0 5823244.026 -21514011.325 -12427160.100 10 0 60900 72900.00000 0 6353347.156 -22774969.543 -9607127.689 10 0 60900 73800.00000 0 6640753.137 -23745350.556 -6600762.579 10 0 60900 74700.00000 0 6722244.122 -24381141.232 -3466412.729 10 0 60900 75600.00000 0 6642812.913 -24648756.684 -264869.432 10 0 60900 76500.00000 0 6453514.272 -24526477.021 2941808.213 10 0 60900 77400.00000 0 6209068.700 -24005406.639 6091490.824 10 0 60900 78300.00000 0 5965320.160 -23089916.445 9123175.365 10 0 60900 79200.00000 0 5776655.051 -21797550.963 11978158.176 10 0 60900 80100.00000 0 5693491.050 -20158404.336 14601162.266 10 0 60900 81000.00000 0 5759941.331 -18213991.223 16941397.867 10 0 60900 81900.00000 0 6011752.181 -16015659.189 18953536.603 10 0 60900 82800.00000 0 6474600.551 -13622608.012 20598581.382 10 0 60900 83700.00000 0 7162823.185 -11099597.250 21844616.076 10 0 60900 84600.00000 0 8078631.101 -8514436.054 22667421.277 10 0 60900 85500.00000 0 9211843.229 -5935358.092 23050944.736 10 0 60901 0.00000 0 10540151.578 -3428389.271 22987617.627 10 0 60901 900.00000 0 12029909.251 -1054814.827 22478510.208 10 0 60901 1800.00000 0 13637408.487 1131146.929 21533323.486 10 0 60901 2700.00000 0 15310599.715 3084372.944 20170215.946 10 0 60901 3600.00000 0 16991179.940 4770478.728 18415467.415 10 0 60901 4500.00000 0 18616965.496 6167009.820 16302985.169 10 0 60901 5400.00000 0 20124450.917 7264131.472 13873660.302 10 0 60901 6300.00000 0 21451447.430 8064787.606 11174585.435 10 0 60901 7200.00000 0 22539690.428 8584322.096 8258147.830 10 0 60901 8100.00000 0 23337305.873 8849578.180 5181014.751 10 0 60901 9000.00000 0 23801030.868 8897513.950 2003030.498 10 0 60901 9900.00000 0 23898093.488 8773392.619 -1213953.176 10 0 60901 10800.00000 0 23607671.022 8528624.748 -4407289.829 10 0 60901 11700.00000 0 22921863.530 8218354.729 -7514769.605 10 0 60901 12600.00000 0 21846140.156 7898895.073 -10475843.660 10 0 60901 13500.00000 0 20399238.217 7625118.763 -13232816.459 10 0 60901 14400.00000 0 18612518.504 7447921.794 -15731981.351 10 0 60901 15300.00000 0 16528803.562 7411864.994 -17924676.058 10 0 60901 16200.00000 0 14200747.781 7553096.375 -19768236.669 10 0 60901 17100.00000 0 11688807.989 7897643.048 -21226831.057 10 0 60901 18000.00000 0 9058900.085 8460145.688 -22272155.351 10 0 60901 18900.00000 0 6379840.231 9243089.413 -22883980.179 10 0 60901 19800.00000 0 3720677.855 10236563.664 -23050536.636 10 0 60901 20700.00000 0 1148031.876 11418561.007 -22768735.198 10 0 60901 21600.00000 0 -1276459.089 12755802.009 -22044214.265 10 0 60901 22500.00000 0 -3498467.020 14205051.059 -20891218.295 10 0 60901 23400.00000 0 -5472989.323 15714867.432 -19332308.776 10 0 60901 24300.00000 0 -7165965.859 17227717.698 -17397914.431 10 0 60901 25200.00000 0 -8555432.663 18682360.564 -15125730.052 10 0 60901 26100.00000 0 -9632166.414 20016403.941 -12559976.134 10 0 60901 27000.00000 0 -10399795.035 21168926.995 -9750534.108 10 0 60901 27900.00000 0 -10874372.183 22083057.360 -6751974.202 10 0 60901 28800.00000 0 -11083435.622 22708395.730 -3622495.006 10 0 60901 29700.00000 0 -11064591.012 23003186.506 -422795.407 10 0 60901 30600.00000 0 -10863682.218 22936143.994 2785099.295 10 0 60901 31500.00000 0 -10532626.327 22487858.012 5939034.406 10 0 60901 32400.00000 0 -10127005.269 21651720.472 8977923.096 10 0 60901 33300.00000 0 -9703515.820 20434334.356 11842921.173 10 0 60901 34200.00000 0 -9317385.371 18855388.073 14478557.195 10 0 60901 35100.00000 0 -9019861.982 16947000.225 16833796.821 10 0 60901 36000.00000 0 -8855883.926 14752561.560 18863021.722 10 0 60901 36900.00000 0 -8862026.329 12325121.555 20526905.014 10 0 60901 37800.00000 0 -9064810.883 9725385.569 21793167.211 10 0 60901 38700.00000 0 -9479449.629 7019404.410 22637198.855 10 0 60901 39600.00000 0 -10109075.873 4276050.654 23042538.314 10 0 60901 40500.00000 0 -10944495.262 1564384.808 23001195.721 10 0 60901 41400.00000 0 -11964468.680 -1048981.047 22513816.653 10 0 60901 42300.00000 0 -13136516.663 -3502414.146 21589681.788 10 0 60901 43200.00000 0 -14418213.402 -5741582.571 20246541.627 10 0 60901 44100.00000 0 -15758917.987 -7721471.777 18510288.200 10 0 60901 45000.00000 0 -17101871.982 -9408012.667 16414468.684 10 0 60901 45900.00000 0 -18386576.775 -10779253.479 13999648.840 10 0 60901 46800.00000 0 -19551351.777 -11826026.478 11312637.186 10 0 60901 47700.00000 0 -20535966.300 -12552081.244 8405583.834 10 0 60901 48600.00000 0 -21284234.113 -12973678.768 5334970.710 10 0 60901 49500.00000 0 -21746460.562 -13118663.265 2160512.455 10 0 60901 50400.00000 0 -21881637.764 -13025050.970 -1056010.399 10 0 60901 51300.00000 0 -21659293.646 -12739195.902 -4251962.592 10 0 60901 52200.00000 0 -21060914.989 -12313610.946 -7365085.051 10 0 60901 53100.00000 0 -20080882.727 -11804537.568 -10334720.173 10 0 60901 54000.00000 0 -18726878.471 -11269368.451 -13103006.229 10 0 60901 54900.00000 0 -17019743.929 -10764033.702 -15616016.204 10 0 60901 55800.00000 0 -14992798.331 -10340462.831 -17824817.659 10 0 60901 56700.00000 0 -12690642.151 -10044231.298 -19686432.112 10 0 60901 57600.00000 0 -10167497.268 -9912492.251 -21164674.713 10 0 60901 58500.00000 0 -7485153.338 -9972281.659 -22230857.737 10 0 60901 59400.00000 0 -4710606.600 -10239268.738 -22864344.460 10 0 60901 60300.00000 0 -1913490.031 -10717004.418 -23052943.193 10 0 60901 61200.00000 0 836597.771 -11396699.186 -22793134.558 10 0 60901 62100.00000 0 3472753.847 -12257539.108 -22090128.501 10 0 60901 63000.00000 0 5933311.894 -13267526.049 -20957750.834 10 0 60901 63900.00000 0 8164158.158 -14384805.995 -19418162.375 10 0 60901 64800.00000 0 10120727.046 -15559428.940 -17501416.947 10 0 60901 65700.00000 0 11769595.000 -16735465.768 -15244867.441 10 0 60901 66600.00000 0 13089608.105 -17853392.732 -12692432.032 10 0 60901 67500.00000 0 14072498.552 -18852643.051 -9893735.180 10 0 60901 68400.00000 0 14722966.437 -19674218.338 -6903140.371 10 0 60901 69300.00000 0 15058225.688 -20263250.192 -3778693.569 10 0 60901 70200.00000 0 15107035.201 -20571404.553 -580997.979 10 0 60901 71100.00000 0 14908257.650 -20559028.124 2627958.102 10 0 60901 72000.00000 0 14509007.900 -20196947.076 5785997.722 10 0 60901 72900.00000 0 13962469.898 -19467842.832 8831953.078 10 0 60901 73800.00000 0 13325474.406 -18367147.433 11706841.983 10 0 60901 74700.00000 0 12655939.649 -16903420.953 14355000.716 10 0 60901 75600.00000 0 12010282.323 -15098194.884 16725152.163 10 0 60901 76500.00000 0 11440907.365 -12985287.430 18771389.436 10 0 60901 77400.00000 0 10993881.441 -10609618.327 20454056.853 10 0 60901 78300.00000 0 10706887.282 -8025571.282 21740512.175 10 0 60901 79200.00000 0 10607544.344 -5294970.574 22605756.123 10 0 60901 80100.00000 0 10712166.154 -2484754.138 23032917.553 10 0 60901 81000.00000 0 11025006.649 335562.127 23013585.149 10 0 60901 81900.00000 0 11538027.815 3096525.477 22547979.074 10 0 60901 82800.00000 0 12231199.388 5731384.911 21644958.701 10 0 60901 83700.00000 0 13073319.405 8178619.154 20321865.380 10 0 60901 84600.00000 0 14023322.761 10384250.064 18604201.991 10 0 60901 85500.00000 0 15032024.352 12303845.891 16525154.110 99